Regional Weather Roundup
Issued by NWS

Home | Current Version | Previous Version | Text Only | Print | Product List | Glossary On
Versions: 1 2 3 4 5 6 7 8 9 10 11 12 13 14 15 16 17 18 19 20 21 22 23 24 25 26 27 28 29 30 31 32 33 34 35 36 37 38 39 40 41 42 43 44 45 46 47 48 49 50
000
ASUS45 KSLC 211510
RWRUT

UTAH REGIONAL WEATHER ROUNDUP
NATIONAL WEATHER SERVICE SALT LAKE CITY UT
800 AM MST SUN DEC 21 2014

UTZ001>011-023>025-211600-

NORTHERN UTAH

CITY           SKY/WX    TMP DP  RH WIND       PRES   REMARKS
BRIGHAM CITY   CLOUDY    40  35  84 S10       29.95F WCI  33
HILL AFB       MIX PCPN  37  37  99 S16       29.96S WCI  27
LOGAN          LGT RAIN  40  35  83 S10       29.88F WCI  33
OGDEN          LGT RAIN  38  37  97 S13       29.95F WCI  30
PROVO AIRPORT  RAIN      37  34  87 NE7       30.04R WCI  32
SALT LAKE CITY LGT RAIN  39  36  89 SE9       29.98S WCI  33
VERNAL         CLOUDY    29  27  92 W3        29.96S
WENDOVER       CLOUDY    37  30  75 W6        29.95F WCI  33
HEBER CITY     MIX PCPN  34  32  93 E3        29.98R
WEST JORDAN    CLOUDY    36  36 100 S18G25    29.99F WCI  25

$$

UTZ012>022-026-027-211600-

SOUTHERN/CENTRAL UTAH

CITY           SKY/WX    TMP DP  RH WIND       PRES   REMARKS
BLANDING       CLOUDY    29  29  99 CALM      30.15R
BRYCE CANYON   MOCLDY    35  25  66 NW18      30.10R WCI  24
CEDAR CITY     CLOUDY    28  25  88 E5        30.11R WCI  23
DELTA          CLOUDY    36  31  82 S12       30.04S WCI  28
MILFORD        CLOUDY    36  29  75 SW17      30.06F WCI  26
MOAB/CYNLANDS  CLOUDY    34  32  92 CALM      30.01F
PRICE          CLOUDY    30  26  85 CALM      30.03S
ST GEORGE      CLOUDY    34  28  80 W3        30.16S
KANAB          MOCLDY    28  28 100 CALM      30.15S

$$

REGIONAL REPORTS     COLORADO/ARIZONA

CITY           SKY/WX    TMP DP  RH WIND       PRES   REMARKS
CRAIG, CO      CLOUDY    33  28  81 VRB3      29.87F
GRAND JUNCTION LGT SNOW  31  31 100 E3        30.02F FOG
RIFLE          SNOW      30  29  96 E3        30.00F VSB 1/2
MONTROSE       CLOUDY    29  26  89 SE6       30.06F WCI  23
CORTEZ         CLEAR     27  24  89 CALM      30.07R
PAGE, AZ       CLOUDY    34  28  79 CALM      30.09S
GRAND CANYON   PTCLDY    22  20  92 CALM      30.15S
KINGMAN        PTCLDY    35  32  88 SE3       30.13S
FLAGSTAFF      CLEAR     37  22  54 W8G21     30.12R WCI  31

$$

REGIONAL REPORTS    NEVADA/IDAHO/WYOMING

CITY           SKY/WX    TMP DP  RH WIND       PRES   REMARKS
LAS VEGAS, NV  CLOUDY    45  36  70 S8        30.10S
ELY            CLOUDY    36  35  96 VRB3      30.13R
ELKO           CLOUDY    42  37  82 VRB3      30.04F
POCATELLO, ID  CLOUDY    43  41  93 SW23G35   29.81S
BURLEY         LGT RAIN  45  41  86 W21G26    29.83R
EVANSTON, WY   LGT SNOW  32  31  96 SW26G33   29.87F VSB 1   WCI  18
ROCK SPRINGS   CLOUDY    30  28  92 SW21      29.81R WCI  17
KEMMERER       LGT SNOW  32  32 100 SW23G31   29.82F VSB 3/4 WCI  19

$$


USA.gov is the U.S. government's official web portal to all federal, state and local government web resources and services.